Tracking 29892 objects as of 21-Nov-2024
HD Live streaming from Space Station
objects crossing your sky now

CZ-6A DEB

Track CZ-6A DEB now!
10-day predictions


NORAD ID: 56269
Int'l Code: 2022-151ACM
Perigee: 832.5 km
Apogee: 887.7 km
Inclination: 98.8 °
Period: 102.0 minutes
Semi major axis: 7231 km
RCS: Unknown
Launch date: November 11, 2022
Source: People's Republic of China (PRC)
Launch site: Taiyaun Space Center, China (TSC)

Note: This is SATELLITE DEBRIS
Your satellite tracking list
Your tracking list is empty




NASA's NSSDC Master Catalog

Two Line Element Set (TLE):
1 56269U 22151ACM 24324.29045503  .00001024  00000-0  58044-3 0  9993
2 56269  98.8249 326.1904 0038175 153.5527 206.7603 14.11870552 89619
Source of the keplerian elements: AFSPC